• en France
  • Liste des pays
  • À 7 jours
  • Température de l'eau
  • Carte satellitaire
  • Carte météo
  • Widgets météo
  • user-avatar
    Se connecter

    Météo par heure à Mendoza

    Ce jour, 16 Novembre, Vendredi

    Heure Température Précipitation Vent Pression Humidité
    00:00 +19°C° 0 mm 4 m/s 698 mmHg 49%
    01:00 +19°C° 0 mm 3 m/s 698 mmHg 49%
    02:00 +18°C° 0 mm 3 m/s 697 mmHg 50%
    03:00 +17°C° 0 mm 3 m/s 697 mmHg 51%
    04:00 +17°C° 0 mm 3 m/s 697 mmHg 53%
    05:00 +18°C° 0 mm 3 m/s 697 mmHg 50%
    06:00 +18°C° 0 mm 4 m/s 697 mmHg 48%
    07:00 +19°C° 0 mm 4 m/s 697 mmHg 46%
    08:00 +21°C° 0 mm 4 m/s 696 mmHg 43%
    09:00 +22°C° 0 mm 3 m/s 696 mmHg 39%
    10:00 +25°C° 0 mm 3 m/s 696 mmHg 36%
    11:00 +26°C° 0 mm 3 m/s 696 mmHg 33%
    12:00 +28°C° 0 mm 3 m/s 695 mmHg 30%
    13:00 +29°C° 0 mm 4 m/s 694 mmHg 26%
    14:00 +30°C° 0 mm 4 m/s 694 mmHg 25%
    15:00 +30°C° 0 mm 4 m/s 694 mmHg 23%
    16:00 +32°C° 0 mm 4 m/s 693 mmHg 21%
    17:00 +30°C° 0 mm 4 m/s 693 mmHg 23%
    18:00 +28°C° 0 mm 4 m/s 693 mmHg 26%
    19:00 +27°C° 0 mm 3 m/s 693 mmHg 28%
    20:00 +26°C° 0 mm 3 m/s 694 mmHg 28%
    21:00 +26°C° 0 mm 4 m/s 694 mmHg 29%
    22:00 +25°C° 0 mm 4 m/s 694 mmHg 30%
    23:00 +23°C° 0 mm 4 m/s 694 mmHg 28%

    Demain, 17 Novembre, Samedi

    Heure Température Précipitation Vent Pression Humidité
    00:00 +23°C° 0 mm 5 m/s 694 mmHg 26%
    01:00 +22°C° 0 mm 5 m/s 693 mmHg 24%
    02:00 +21°C° 0 mm 6 m/s 694 mmHg 23%
    03:00 +21°C° 0 mm 6 m/s 694 mmHg 23%
    04:00 +20°C° 0 mm 7 m/s 694 mmHg 22%
    05:00 +20°C° 0 mm 7 m/s 695 mmHg 27%
    06:00 +20°C° 0 mm 8 m/s 696 mmHg 32%
    07:00 +20°C° 0 mm 8 m/s 697 mmHg 36%
    08:00 +21°C° 0 mm 8 m/s 697 mmHg 35%
    09:00 +22°C° 0 mm 7 m/s 697 mmHg 33%
    10:00 +23°C° 0 mm 7 m/s 698 mmHg 31%
    11:00 +24°C° 0 mm 6 m/s 698 mmHg 30%
    12:00 +26°C° 0 mm 6 m/s 697 mmHg 29%
    13:00 +26°C° 0 mm 5 m/s 697 mmHg 28%
    14:00 +26°C° 0 mm 5 m/s 697 mmHg 27%
    15:00 +26°C° 0 mm 6 m/s 698 mmHg 27%
    16:00 +26°C° 0 mm 6 m/s 698 mmHg 26%
    17:00 +25°C° 0 mm 5 m/s 698 mmHg 28%
    18:00 +23°C° 0 mm 5 m/s 699 mmHg 31%
    19:00 +21°C° 0 mm 4 m/s 700 mmHg 33%
    20:00 +21°C° 0 mm 4 m/s 700 mmHg 34%
    21:00 +20°C° 0 mm 3 m/s 701 mmHg 36%
    22:00 +19°C° 0 mm 3 m/s 701 mmHg 37%
    23:00 +18°C° 0 mm 2 m/s 701 mmHg 39%

    Après-demain, 18 Novembre, Dimanche

    Heure Température Précipitation Vent Pression Humidité
    00:00 +17°C° 0 mm 2 m/s 700 mmHg 40%
    01:00 +17°C° 0 mm 2 m/s 700 mmHg 41%
    02:00 +16°C° 0 mm 2 m/s 699 mmHg 42%
    03:00 +16°C° 0 mm 2 m/s 699 mmHg 43%
    04:00 +16°C° 0 mm 2 m/s 699 mmHg 43%
    05:00 +17°C° 0 mm 2 m/s 699 mmHg 39%
    06:00 +18°C° 0 mm 3 m/s 699 mmHg 34%
    07:00 +19°C° 0 mm 3 m/s 700 mmHg 29%
    08:00 +21°C° 0 mm 4 m/s 700 mmHg 27%
    09:00 +22°C° 0 mm 4 m/s 700 mmHg 25%
    10:00 +25°C° 0 mm 4 m/s 699 mmHg 23%
    11:00 +26°C° 0 mm 4 m/s 699 mmHg 22%
    12:00 +27°C° 0 mm 5 m/s 698 mmHg 21%
    13:00 +28°C° 0 mm 5 m/s 698 mmHg 20%
    14:00 +29°C° 0 mm 5 m/s 698 mmHg 20%
    15:00 +29°C° 0 mm 4 m/s 697 mmHg 20%
    16:00 +29°C° 0 mm 4 m/s 697 mmHg 20%
    17:00 +28°C° 0 mm 3 m/s 697 mmHg 22%
    18:00 +27°C° 0 mm 3 m/s 697 mmHg 25%
    19:00 +26°C° 0 mm 2 m/s 697 mmHg 27%
    20:00 +25°C° 0 mm 2 m/s 697 mmHg 28%
    21:00 +25°C° 0 mm 2 m/s 697 mmHg 30%
    22:00 +24°C° 0 mm 1 m/s 697 mmHg 32%
    23:00 +24°C° 0 mm 2 m/s 697 mmHg 32%

    19 Novembre, Lundi

    Heure Température Précipitation Vent Pression Humidité
    00:00 +23°C° 0 mm 2 m/s 697 mmHg 32%
    01:00 +22°C° 0 mm 3 m/s 696 mmHg 32%
    02:00 +21°C° 0 mm 3 m/s 696 mmHg 32%
    03:00 +20°C° 0 mm 2 m/s 696 mmHg 32%
    04:00 +20°C° 0 mm 2 m/s 696 mmHg 32%
    05:00 +21°C° 0 mm 2 m/s 696 mmHg 30%
    06:00 +24°C° 0 mm 3 m/s 697 mmHg 28%
    07:00 +25°C° 0 mm 3 m/s 697 mmHg 26%
    08:00 +27°C° 0 mm 3 m/s 697 mmHg 24%
    09:00 +28°C° 0 mm 3 m/s 697 mmHg 23%
    10:00 +30°C° 0 mm 3 m/s 697 mmHg 22%
    11:00 +31°C° 0 mm 3 m/s 697 mmHg 21%
    12:00 +33°C° 0 mm 4 m/s 696 mmHg 20%
    13:00 +34°C° 0 mm 4 m/s 696 mmHg 19%
    14:00 +34°C° 0 mm 4 m/s 696 mmHg 19%
    15:00 +34°C° 0 mm 4 m/s 695 mmHg 19%
    16:00 +34°C° 0 mm 4 m/s 695 mmHg 18%
    17:00 +33°C° 0 mm 3 m/s 696 mmHg 21%
    18:00 +30°C° 0 mm 3 m/s 696 mmHg 23%
    19:00 +29°C° 0 mm 2 m/s 696 mmHg 25%
    20:00 +28°C° 0 mm 2 m/s 697 mmHg 27%
    21:00 +28°C° 0 mm 2 m/s 697 mmHg 29%
    22:00 +27°C° 0 mm 2 m/s 697 mmHg 31%
    23:00 +26°C° 0 mm 2 m/s 697 mmHg 33%

    20 Novembre, Mardi

    Heure Température Précipitation Vent Pression Humidité
    00:00 +26°C° 0 mm 2 m/s 697 mmHg 35%
    01:00 +25°C° 0 mm 2 m/s 696 mmHg 37%
    02:00 +24°C° 0 mm 2 m/s 696 mmHg 38%
    03:00 +24°C° 0 mm 2 m/s 696 mmHg 39%
    04:00 +23°C° 0 mm 2 m/s 696 mmHg 40%
    05:00 +25°C° 0 mm 2 m/s 697 mmHg 37%
    06:00 +26°C° 0 mm 2 m/s 698 mmHg 35%
    07:00 +28°C° 0 mm 2 m/s 698 mmHg 32%
    08:00 +29°C° 0 mm 2 m/s 698 mmHg 30%
    09:00 +31°C° 0 mm 3 m/s 698 mmHg 28%
    10:00 +33°C° 0 mm 3 m/s 698 mmHg 25%
    11:00 +34°C° 0 mm 4 m/s 698 mmHg 24%
    12:00 +35°C° 0 mm 4 m/s 697 mmHg 23%
    13:00 +36°C° 0 mm 5 m/s 697 mmHg 21%
    14:00 +36°C° 0 mm 5 m/s 696 mmHg 21%
    15:00 +36°C° 0 mm 5 m/s 696 mmHg 21%
    16:00 +36°C° 0 mm 5 m/s 696 mmHg 20%
    17:00 +35°C° 0 mm 4 m/s 696 mmHg 22%
    18:00 +34°C° 0 mm 4 m/s 696 mmHg 24%
    19:00 +31°C° 0 mm 3 m/s 696 mmHg 26%
    20:00 +31°C° 0 mm 3 m/s 696 mmHg 28%
    21:00 +30°C° 0 mm 3 m/s 697 mmHg 30%
    22:00 +29°C° 0 mm 3 m/s 697 mmHg 32%
    23:00 +29°C° 0 mm 3 m/s 696 mmHg 31%

    21 Novembre, Mercredi

    Heure Température Précipitation Vent Pression Humidité
    00:00 +28°C° 0 mm 3 m/s 696 mmHg 31%
    01:00 +27°C° 0 mm 3 m/s 695 mmHg 31%
    02:00 +27°C° 0 mm 3 m/s 695 mmHg 31%
    03:00 +26°C° 0 mm 3 m/s 695 mmHg 32%
    04:00 +25°C° 0 mm 3 m/s 695 mmHg 33%
    05:00 +27°C° 0 mm 3 m/s 695 mmHg 30%
    06:00 +28°C° 0 mm 3 m/s 696 mmHg 27%
    07:00 +30°C° 0 mm 3 m/s 696 mmHg 24%
    08:00 +31°C° 0 mm 3 m/s 696 mmHg 22%
    09:00 +34°C° 0 mm 3 m/s 696 mmHg 21%
    10:00 +35°C° 0 mm 3 m/s 696 mmHg 19%
    11:00 +36°C° 0 mm 3 m/s 695 mmHg 18%
    12:00 +37°C° 0 mm 3 m/s 695 mmHg 16%
    13:00 +38°C° 0 mm 3 m/s 695 mmHg 15%
    14:00 +38°C° 0 mm 4 m/s 695 mmHg 15%
    15:00 +38°C° 0 mm 4 m/s 695 mmHg 15%
    16:00 +38°C° 0 mm 4 m/s 695 mmHg 15%
    17:00 +37°C° 0.1 mm 4 m/s 695 mmHg 17%
    18:00 +36°C° 0.1 mm 4 m/s 696 mmHg 20%
    19:00 +35°C° 0.1 mm 4 m/s 697 mmHg 22%
    20:00 +32°C° 0.7 mm 6 m/s 697 mmHg 33%
    21:00 +28°C° 0.7 mm 9 m/s 698 mmHg 43%
    22:00 +24°C° 0.7 mm 11 m/s 699 mmHg 54%
    23:00 +23°C° 0.4 mm 10 m/s 700 mmHg 53%
    Voir plus